Location: Briarwood
(39.0812°N, 76.8511°W)
Time: 22:38:29
(UTC+00:00)

Cosmos 1818 - Pass Details

Date: 10 September 2024
Orbit: 771 x 801 km, 65.0° (Epoch: 06 October)

Event Time Altitude Azimuth Distance (km) Brightness Sun altitude
Rises 23:45:16 0° 204° (SSW) 3,269 7.0 -5.1°
Reaches altitude 10° 23:47:40 10° 203° (SSW) 2,348 6.2 -5.6°
Maximum altitude 23:53:04 76° 119° (ESE) 823 3.6 -6.6°
Drops below altitude 10° 23:58:32 10° 34° (NE) 2,378 5.8 -7.7°
Sets 00:00:58 0° 33° (NNE) 3,314 6.6 -8.1°
